sat.trackr.live / text

‹ back to catalog

ONEWEB-0082

NORAD 45452 · 2020-020AE

PAYLOAD ACTIVE UNKNOWN

§ Identity

Operator
Country
UK
Launch date
2020-03-21
Launch site
TYMSC
Launch vehicle
Mass (kg)
RCS (m²)

Purposes: comms

External: N2YO · Heavens-Above · Gunter

§ Orbital elements

Epoch: 2026-05-25T03:20:07.947168Z

Period
109.81 min
Inclination
87.8917°
Eccentricity
0.0001902
Mean motion
13.11414769 rev/d
Perigee alt
1,216.2 km
Apogee alt
1,219.1 km
Semi-major
7,595.8 km
B*
-2.4710e-4
RAAN
25.6431°
Arg perigee
75.0891°
Mean anomaly
285.0448°
Rev number
29,965

§ Raw data

ONEWEB-00821 45452U 20020AE  26145.13898087 -.00000075  00000+0 -24710-3 0  99962 45452  87.8917  25.6431 0001902  75.0891 285.0448 13.11414769299654

JSON: /api/v1/satellites/45452 · /tle

For live sub-satellite position, see the globe view (requires WebGL).

§ Visibility from observer

Set your observer location to see the next 7 days of passes ≥ 10°. The values pass through the URL so the page stays shareable.

No JS? Fill the form by hand. The geolocation button needs JavaScript.